Regional Weather Roundup
Issued by NWS

Home | Current Version | Previous Version | Text Only | Print | Product List | Glossary Off
Versions: 1 2 3 4 5 6 7 8 9 10 11 12 13 14 15 16 17 18 19 20 21 22 23 24 25 26 27 28 29 30 31 32 33 34 35 36 37 38 39 40 41 42 43 44 45 46 47 48 49 50

000
ASUS43 KFSD 171010
RWRSD

WEATHER ROUNDUP FOR SOUTH DAKOTA
NATIONAL WEATHER SERVICE SIOUX FALLS SD
500 AM CDT TUE OCT 17 2017

NOTE: "FAIR" INDICATES FEW OR NO CLOUDS BELOW 12,000 FEET WITH NO
SIGNIFICANT WEATHER AND/OR OBSTRUCTIONS TO VISIBILITY.


SDZ001>005-009-010-012>017-171100-
NORTHWEST AND NORTH CENTRAL SOUTH DAKOTA

CITY           SKY/WX    TMP DP  RH WIND       PRES   REMARKS
BUFFALO          N/A     45  26  47 W10       29.95F
FAITH            N/A     48  29  47 SW12      30.01F
MOBRIDGE       CLEAR     41  34  76 SE6       29.97S
$$

SDZ012>016-024>037-041>051-057-063-072>074-171100-
SOUTHWEST AND SOUTH CENTRAL SOUTH DAKOTA

CITY           SKY/WX    TMP DP  RH WIND       PRES   REMARKS
RAPID CTY ARPT CLEAR     40  26  57 W9        30.07F
PIERRE         CLEAR     43  35  73 W7        30.01F
CUSTER         CLOUDY    38  18  44 NW5       30.17F
ELLSWORTH AFB  CLEAR     41  26  54 W8        30.06F
PHILIP         CLEAR     41  35  79 W9        30.04S
PINE RIDGE     CLEAR     30  27  88 CALM      30.11F
SPEARFISH      FAIR      50  21  32 CALM      30.09F
WINNER         FAIR      45  35  68 SW6       30.06S
$$

SDZ004>011-016>023-039-040-171100-
NORTHEAST SOUTH DAKOTA

CITY           SKY/WX    TMP DP  RH WIND       PRES   REMARKS
ABERDEEN       CLEAR     33  32  96 S5        29.99F WCI  29
WATERTOWN      CLEAR     38  37  97 CALM      29.99S
BROOKINGS      CLEAR     39  37  92 SE6       30.02R
SISSETON         N/A     45  38  76 S3        29.96R
$$

SDZ017-020-022-023-036>040-048>070-171100-
SOUTHEAST SOUTH DAKOTA

CITY           SKY/WX    TMP DP  RH WIND       PRES   REMARKS
SIOUX FALLS    CLEAR     39  37  92 CALM      30.03F
HURON          CLEAR     39  38  96 S5        30.01F
CHAMBERLAIN    CLEAR     42  40  94 CALM      30.04S
MITCHELL       CLEAR     39  37  92 CALM      30.03S
YANKTON        CLEAR     40  37  89 NW3       30.04S
$$

ABBREVIATIONS USED IN REMARKS
   TC - TEMPERATURE IN CELSIUS
  WCI - WIND CHILL INDEX
   HX - HEAT INDEX
  VSB - VISIBILITY





USA.gov is the U.S. government's official web portal to all federal, state and local government web resources and services.